Location: Saint-Palais-sur-Mer
(45.6429°N, 1.0859°W)
Time: 00:30:18
(UTC+01:00)

Vanguard 1 - Pass Details

Date: 11 February 2026
Orbit: 653 x 3818 km, 34.2° (Epoch: 12 March)

Event Time Altitude Azimuth Distance (km) Brightness Sun altitude
Rises 23:25:14 0° 279° (W) 7,364 15.0 -50.2°
Reaches altitude 10° 23:30:17 10° 273° (W) 6,602 14.6 -50.8°
Enters shadow 23:48:16 41° 223° (SW) 4,799 13.2 -52.9°
